Newburgh, NY

8:40 PM EDT on August 17, 2017 (GMT -0400)
Stewart International

Weather History for KSWF - October, 2011

Change the Weather History Date:

Sunday, October 30, 2011

  Actual Average Record
Temperature  
Mean Temperature 37 °F -  
Max Temperature 46 °F 54 °F 74 °F (1989)
Min Temperature 28 °F 35 °F 21 °F (1983)
Degree Days  
Heating Degree Days 28    
Moisture  
Dew Point 28 °F    
Average Humidity 76    
Maximum Humidity 100    
Minimum Humidity 43    
Precipitation  
Precipitation 0.00 in - - ()
Sea Level Pressure  
Sea Level Pressure 30.14 in    
Wind  
Wind Speed 8 mph (WNW)    
Max Wind Speed 13 mph    
Max Gust Speed 20 mph    
Visibility 14 miles    
Events Snow    
Averages and records for this station are not official NWS values.
T = Trace of Precipitation, MM = Missing Value Source: NWS Daily Summary

Daily Weather History Graph

Daily Weather History Graph

Search for Another Location

Airport or City:

Trip Planner

Search our weather history database for the weather conditions in past years. The results will help you decide how hot, cold, wet, or windy it might be!

Date:

Astronomy

Oct. 30, 2011 Rise Set
Actual Time 7:25 AM EDT 5:54 PM EDT
Civil Twilight 6:56 AM EDT 6:22 PM EDT
Nautical Twilight 6:24 AM EDT 6:55 PM EDT
Astronomical Twilight 5:51 AM EDT 7:27 PM EDT
Moon 11:44 AM EDT (10/30) 9:18 PM EDT (10/30)
Length of Visible Light 11h 26m
Length of Day
10h 28m
Waxing Crescent, 20% of the Moon is Illuminated
Oct 30
Waxing Crescent
Nov 2
First Quarter
Nov 10
Full
Nov 18
Last Quarter
Nov 25
New

Hourly Weather History & Observations

Time (EDT) Temp. Windchill Dew Point Humidity Pressure Visibility Wind Dir Wind Speed Gust Speed Precip Events Conditions
12:45 AM 32.0 °F 22.5 °F 30.2 °F 93% 29.96 in 2.0 mi North 12.7 mph 19.6 mph N/A Snow Light Snow
1:45 AM 32.0 °F 26.4 °F 30.2 °F 93% 29.96 in 4.0 mi NNW 5.8 mph - N/A   Overcast
2:45 AM 30.2 °F 26.7 °F 28.4 °F 93% 29.95 in 5.0 mi Variable 3.5 mph - N/A   Overcast
3:45 AM 30.2 °F 23.4 °F 30.2 °F 100% 29.96 in 8.0 mi NNW 6.9 mph - N/A   Overcast
4:45 AM 30.2 °F 23.4 °F 28.4 °F 93% 29.96 in 8.0 mi NNW 6.9 mph - N/A   Overcast
5:45 AM 28.4 °F 19.7 °F 26.6 °F 93% 30.01 in 15.0 mi NW 9.2 mph - N/A   Partly Cloudy
6:45 AM 30.2 °F 20.8 °F 26.6 °F 86% 30.02 in 15.0 mi WNW 11.5 mph - N/A   Partly Cloudy
7:45 AM 30.2 °F 21.9 °F 26.6 °F 86% 30.06 in 20.0 mi WNW 9.2 mph - N/A   Clear
8:45 AM 32.0 °F 24.2 °F 28.4 °F 87% 30.11 in 20.0 mi NW 9.2 mph - N/A   Clear
9:45 AM 33.8 °F 28.6 °F 28.4 °F 81% 30.13 in 20.0 mi SW 5.8 mph - N/A   Clear
11:55 AM 39.2 °F 33.6 °F 30.2 °F 70% 30.20 in 20.0 mi West 8.1 mph - N/A   Clear
12:50 PM 41.0 °F 35.8 °F 28.4 °F 61% 30.20 in 20.0 mi West 8.1 mph - N/A   Clear
1:50 PM 42.8 °F 36.6 °F 24.8 °F 49% 30.19 in 20.0 mi WNW 11.5 mph - N/A   Clear
2:45 PM 42.8 °F 36.6 °F 24.8 °F 49% 30.19 in 20.0 mi WNW 11.5 mph - N/A   Clear
3:45 PM 46.4 °F 41.1 °F 24.8 °F 43% 30.19 in 20.0 mi NNW 11.5 mph - N/A   Clear
4:45 PM 46.4 °F 43.5 °F 26.6 °F 46% 30.19 in 20.0 mi WNW 5.8 mph - N/A   Clear
5:45 PM 42.8 °F 39.3 °F 30.2 °F 61% 30.23 in 10.0 mi WNW 5.8 mph - N/A   Clear
6:45 PM 39.2 °F - 30.2 °F 70% 30.25 in - Calm Calm - N/A   Clear
7:45 PM 37.4 °F 32.1 °F 30.2 °F 75% 30.29 in 10.0 mi West 6.9 mph - N/A   Clear
8:45 PM 35.6 °F 29.9 °F 28.4 °F 75% 30.30 in 10.0 mi West 6.9 mph - N/A   Clear
9:45 PM 33.8 °F - 28.4 °F 81% 30.31 in 10.0 mi Calm Calm - N/A   Clear
10:45 PM 35.6 °F 31.7 °F 28.4 °F 75% 30.33 in 10.0 mi West 4.6 mph - N/A   Clear
11:45 PM 35.6 °F 31.7 °F 30.2 °F 81% 30.34 in 10.0 mi West 4.6 mph - N/A   Clear